STARLINK-33545, 62101

Orbit data source: Space-Track

STARLINK-33545, 62101 is a payload satellite owned by SpaceX/Seattle (US) in LEO that was launched on Mon, 25 Nov 2024 UTC via an FALCON 9 launch vehicle from the Air Force Eastern Test Range (AFETR). Payload-class satellites include a variety of spacecraft equipped with specific instruments for various scientific and technological missions. These include communications satellites like Starlink; space stations such as the ISS; scientific satellites like the Hubble; Earth observation satellites from companies like Planet Labs, Umbra, and HawkEye 360; GPS; miniature CubeSats for education and research; and military/defense satellites.

Loading next visibility...
Identifier
62101, 2024-220P
Orbit
LEO
Country
Flag of USUS
Related business
Manufacturer
SpaceX/Seattle
Mission
Operational Commercial Communications
Bus & Motor
STARLINK V2MO, Unknown motor
Mass
530 kg wet, ~500 kg dry
Launch date (UTC)
2024-11-25 (2 years ago)
Launch vehicle
FALCON 9
Launch site
Air Force Eastern Test Range (AFETR)
Object type
Payload
Rocket body
Debris
Shape & HBR
Box + 2 Pan, 17.7 m
Radar Cross Section
36.964 m², Large (>1 m²)

Expand to show TLE details & history
Last TLE update: 15 hours ago

TLE from 15 hours ago
0 STARLINK-33545
1 62101U 24220P   26171.21250785  .00014562  00000-0  53713-3 0  9997
2 62101  43.0088 346.3013 0003954 273.8404  86.1995 15.27607838 88702
Epoch: 2026-06-20T05:06Z
TLE epoch observation values (Epoch: 2026-06-20T05:06:00.678Z)
Latitude
-0.00005°
Longitude
1.36805°
Altitude
482.563 km
Speed
7.626 km/s
True Right ascension
23h 05m 12s
True Declination
0° 00' 00"
Sunlit
Object was in daylight at epoch
Visualization orbit readout
Latitude
Unknown
Longitude
Unknown
Altitude
Unknown
Speed
Unknown
Apparent Right ascension
Unknown
Apparent Declination
Unknown
Sunlit
N/A
Visualization observer readout
Local Sidereal Time
07:18:13
Azimuth
Unknown
Elevation
Unknown
Doppler factor
Unknown
Orbital elements
Apogee altitude
487.623 km
Perigee altitude
482.196 km
Semi-major axis
6,863.046 km
Eccentricity
0.0004
Inclination
43.0088°
RAAN
346.3013°
Arg. of periapsis
273.8404°
True anomaly
86.24471°
Mean anomaly
86.1995°
Eccentric anomaly
86.22211°
Mean motion
3.8174 °/min
Orbital period
94.31 mins
BSTAR
0.00053713
Loading maneuver chart data...
Computing Atmospheric mass density...
Loading historical data...
Loading historical data...
Loading historical data...
Loading historical data...
Loading historical data...
Loading historical data...
Loading historical data...

Documentation

Showing up to 5 results
|